When you browse on this site, cookies collect data to enhance your experience and personalize the content and advertising you see.
Visit our Privacy Policy to learn more. By continuing to use the site, you agree to this use of cookies and data.

Hourly Weather Andora

Today, 25 September, Friday

Time Temperature Precipitation Wind Pressure Humidity
00:00 +6°C° 0 mm 1 mps 619 mmHg 88%
01:00 +6°C° 0.3 mm 1 mps 619 mmHg 89%
02:00 +4°C° 0.3 mm 2 mps 619 mmHg 91%
03:00 +3°C° 0.3 mm 2 mps 618 mmHg 93%
04:00 +3°C° 1.2 mm 2 mps 618 mmHg 93%
05:00 +1°C° 1.2 mm 3 mps 618 mmHg 93%
06:00 +1°C° 1.2 mm 3 mps 618 mmHg 93%
07:00 +1°C° 0.6 mm 3 mps 618 mmHg 88%
08:00 +2°C° 0.6 mm 3 mps 619 mmHg 83%
09:00 +2°C° 0.6 mm 3 mps 619 mmHg 78%
10:00 +3°C° 1 mm 3 mps 619 mmHg 77%
11:00 +3°C° 1 mm 3 mps 619 mmHg 75%
12:00 +3°C° 1 mm 3 mps 620 mmHg 74%
13:00 +3°C° 1 mm 3 mps 620 mmHg 76%
14:00 +3°C° 1 mm 3 mps 620 mmHg 77%
15:00 +2°C° 1 mm 3 mps 620 mmHg 79%
16:00 +1°C° 1.2 mm 3 mps 620 mmHg 84%
17:00 +1°C° 1.2 mm 3 mps 619 mmHg 89%
18:00 +1°C° 1.2 mm 2 mps 619 mmHg 95%
19:00 0°C° 2.2 mm 3 mps 620 mmHg 96%
20:00 0°C° 2.2 mm 3 mps 620 mmHg 96%
21:00 0°C° 2.2 mm 3 mps 620 mmHg 97%
22:00 -1°C° 1.9 mm 3 mps 620 mmHg 97%
23:00 -1°C° 1.9 mm 3 mps 620 mmHg 97%

Tomorrow, 26 September, Saturday

Time Temperature Precipitation Wind Pressure Humidity
00:00 -1°C° 1.9 mm 3 mps 620 mmHg 97%
01:00 -1°C° 1.4 mm 3 mps 620 mmHg 97%
02:00 -1°C° 1.4 mm 3 mps 620 mmHg 97%
03:00 -1°C° 1.4 mm 3 mps 620 mmHg 97%
04:00 -1°C° 0.9 mm 3 mps 620 mmHg 96%
05:00 -1°C° 0.9 mm 3 mps 620 mmHg 96%
06:00 -1°C° 0.9 mm 3 mps 620 mmHg 96%
07:00 0°C° 0.1 mm 3 mps 620 mmHg 93%
08:00 0°C° 0.1 mm 3 mps 621 mmHg 89%
09:00 +1°C° 0.1 mm 3 mps 621 mmHg 85%
10:00 +2°C° 0.1 mm 3 mps 621 mmHg 83%
11:00 +3°C° 0.1 mm 3 mps 621 mmHg 82%
12:00 +3°C° 0.1 mm 3 mps 621 mmHg 80%
13:00 +3°C° 0.3 mm 3 mps 620 mmHg 81%
14:00 +4°C° 0.3 mm 2 mps 620 mmHg 82%
15:00 +4°C° 0.3 mm 2 mps 620 mmHg 83%
16:00 +3°C° 1.5 mm 2 mps 619 mmHg 88%
17:00 +3°C° 1.5 mm 2 mps 619 mmHg 92%
18:00 +2°C° 1.5 mm 2 mps 618 mmHg 97%
19:00 +2°C° 0.4 mm 2 mps 619 mmHg 96%
20:00 +2°C° 0.4 mm 2 mps 619 mmHg 96%
21:00 +1°C° 0.4 mm 2 mps 619 mmHg 96%
22:00 +1°C° 0 mm 2 mps 618 mmHg 95%
23:00 -1°C° 0 mm 2 mps 618 mmHg 93%

Day after tomorrow, 27 September, Sunday

Time Temperature Precipitation Wind Pressure Humidity
00:00 -2°C° 0 mm 2 mps 617 mmHg 92%
01:00 -2°C° 0 mm 2 mps 617 mmHg 91%
02:00 -2°C° 0 mm 2 mps 617 mmHg 90%
03:00 -2°C° 0 mm 2 mps 617 mmHg 89%
04:00 -1°C° 0.4 mm 2 mps 617 mmHg 91%
05:00 +1°C° 0.4 mm 2 mps 617 mmHg 92%
06:00 +1°C° 0.4 mm 2 mps 618 mmHg 93%
07:00 +1°C° 0.3 mm 3 mps 618 mmHg 90%
08:00 +2°C° 0.3 mm 3 mps 619 mmHg 88%
09:00 +3°C° 0.3 mm 3 mps 619 mmHg 85%
10:00 +3°C° 0 mm 3 mps 619 mmHg 81%
11:00 +3°C° 0 mm 3 mps 619 mmHg 77%
12:00 +4°C° 0 mm 3 mps 619 mmHg 72%
13:00 +4°C° 0 mm 3 mps 619 mmHg 73%
14:00 +3°C° 0 mm 3 mps 619 mmHg 74%
15:00 +3°C° 0 mm 3 mps 619 mmHg 74%
16:00 +2°C° 0 mm 3 mps 619 mmHg 78%
17:00 0°C° 0 mm 3 mps 619 mmHg 82%
18:00 -1°C° 0 mm 3 mps 619 mmHg 86%
19:00 -1°C° 0 mm 3 mps 619 mmHg 87%
20:00 -1°C° 0 mm 3 mps 620 mmHg 88%
21:00 -1°C° 0 mm 3 mps 620 mmHg 88%
22:00 -1°C° 0 mm 2 mps 621 mmHg 89%
23:00 -1°C° 0 mm 2 mps 621 mmHg 90%

28 September, Monday

Time Temperature Precipitation Wind Pressure Humidity
00:00 +1°C° 0 mm 2 mps 621 mmHg 90%
01:00 +1°C° 0 mm 2 mps 621 mmHg 90%
02:00 +1°C° 0 mm 2 mps 621 mmHg 90%
03:00 +1°C° 0 mm 2 mps 621 mmHg 90%
04:00 +1°C° 0 mm 2 mps 621 mmHg 89%
05:00 +1°C° 0 mm 2 mps 622 mmHg 89%
06:00 +1°C° 0 mm 2 mps 622 mmHg 88%
07:00 +3°C° 0 mm 2 mps 623 mmHg 85%
08:00 +5°C° 0 mm 2 mps 624 mmHg 81%
09:00 +9°C° 0 mm 1 mps 625 mmHg 78%
10:00 +9°C° 0 mm 1 mps 625 mmHg 77%
11:00 +10°C° 0 mm 1 mps 626 mmHg 75%
12:00 +11°C° 0 mm 1 mps 626 mmHg 74%
13:00 +11°C° 0 mm 1 mps 626 mmHg 74%
14:00 +11°C° 0 mm 1 mps 625 mmHg 75%
15:00 +11°C° 0 mm 1 mps 625 mmHg 76%
16:00 +9°C° 0 mm 1 mps 625 mmHg 81%
17:00 +7°C° 0 mm 1 mps 624 mmHg 86%
18:00 +6°C° 0 mm 1 mps 624 mmHg 92%
19:00 +6°C° 0 mm 1 mps 624 mmHg 91%
20:00 +5°C° 0 mm 1 mps 624 mmHg 90%
21:00 +5°C° 0 mm 1 mps 624 mmHg 89%
22:00 +5°C° 0 mm 1 mps 624 mmHg 88%
23:00 +5°C° 0 mm 1 mps 624 mmHg 87%

29 September, Tuesday

Time Temperature Precipitation Wind Pressure Humidity
00:00 +6°C° 0 mm 1 mps 624 mmHg 87%
01:00 +5°C° 0 mm 1 mps 624 mmHg 86%
02:00 +5°C° 0 mm 1 mps 624 mmHg 86%
03:00 +5°C° 0 mm 1 mps 624 mmHg 85%
04:00 +5°C° 0 mm 1 mps 624 mmHg 84%
05:00 +5°C° 0 mm 1 mps 624 mmHg 82%
06:00 +5°C° 0 mm 1 mps 624 mmHg 81%
07:00 +7°C° 0 mm 1 mps 625 mmHg 78%
08:00 +9°C° 0 mm 1 mps 625 mmHg 75%
09:00 +11°C° 0 mm 1 mps 626 mmHg 72%
10:00 +11°C° 0 mm 1 mps 626 mmHg 69%
11:00 +12°C° 0 mm 1 mps 626 mmHg 66%
12:00 +13°C° 0 mm 1 mps 627 mmHg 64%
13:00 +13°C° 0 mm 1 mps 626 mmHg 64%
14:00 +13°C° 0 mm 1 mps 626 mmHg 64%
15:00 +13°C° 0 mm 1 mps 626 mmHg 64%
16:00 +11°C° 0 mm 1 mps 625 mmHg 69%
17:00 +9°C° 0 mm 1 mps 624 mmHg 74%
18:00 +7°C° 0 mm 1 mps 623 mmHg 79%
19:00 +7°C° 0 mm 1 mps 623 mmHg 78%
20:00 +7°C° 0 mm 1 mps 623 mmHg 77%
21:00 +6°C° 0 mm 1 mps 623 mmHg 76%
22:00 +6°C° 0 mm 1 mps 623 mmHg 75%
23:00 +6°C° 0 mm 1 mps 623 mmHg 73%

30 September, Wednesday

Time Temperature Precipitation Wind Pressure Humidity
00:00 +6°C° 0 mm 1 mps 623 mmHg 71%
01:00 +6°C° 0 mm 1 mps 622 mmHg 71%
02:00 +6°C° 0 mm 1 mps 622 mmHg 70%
03:00 +6°C° 0 mm 1 mps 622 mmHg 69%
04:00 +6°C° 0 mm 1 mps 622 mmHg 68%
05:00 +6°C° 0 mm 1 mps 622 mmHg 67%
06:00 +5°C° 0 mm 1 mps 622 mmHg 67%
07:00 +8°C° 0 mm 1 mps 623 mmHg 64%
08:00 +10°C° 0 mm 1 mps 623 mmHg 62%
09:00 +12°C° 0 mm 1 mps 624 mmHg 60%
10:00 +13°C° 0 mm 1 mps 624 mmHg 58%
11:00 +14°C° 0 mm 1 mps 625 mmHg 55%
12:00 +15°C° 0 mm 1 mps 625 mmHg 53%
13:00 +15°C° 0 mm 1 mps 625 mmHg 54%
14:00 +15°C° 0 mm 1 mps 624 mmHg 55%
15:00 +14°C° 0 mm 1 mps 624 mmHg 56%
16:00 +12°C° 0 mm 1 mps 623 mmHg 64%
17:00 +10°C° 0 mm 1 mps 622 mmHg 72%
18:00 +8°C° 0 mm 1 mps 621 mmHg 80%
19:00 +8°C° 0 mm 1 mps 622 mmHg 80%
20:00 +7°C° 0 mm 1 mps 622 mmHg 80%
21:00 +7°C° 0 mm 1 mps 622 mmHg 81%
22:00 +7°C° 0 mm 1 mps 621 mmHg 80%
23:00 +6°C° 0 mm 1 mps 621 mmHg 80%
Show more